ACST,Max TemperatureF,Mean TemperatureF,Min TemperatureF,Max Dew PointF,MeanDew PointF,Min DewpointF,Max Humidity, Mean Humidity, Min Humidity, Max Sea Level PressureIn, Mean Sea Level PressureIn, Min Sea Level PressureIn, Max VisibilityMiles, Mean VisibilityMiles, Min VisibilityMiles, Max Wind SpeedMPH, Mean Wind SpeedMPH, Max Gust SpeedMPH,PrecipitationIn, CloudCover, Events, WindDirDegrees
2013-2-1,87,76,64,45,37,28,40,24,9,30.12,30.02,29.88,19,8,6,17,9,,0.00,,,157
2013-2-2,86,70,54,36,31,25,39,22,6,30.09,30.02,29.87,19,8,4,16,8,,0.00,,,131
2013-2-3,89,72,54,41,30,21,48,21,4,30.09,29.99,29.86,19,7,6,14,6,31,0.00,,,127
2013-2-4,95,75,55,34,27,16,36,16,4,30.09,30.01,29.87,19,8,6,13,5,21,0.00,,,110
2013-2-5,96,78,60,36,29,19,36,16,4,30.06,29.98,29.82,19,8,6,18,5,20,0.00,,,131
2013-2-6,101,82,62,36,26,14,30,13,4,29.98,29.88,29.70,19,8,6,13,6,22,0.00,,,46
2013-2-7,102,83,64,36,27,12,30,12,4,29.89,29.82,29.67,19,8,6,18,7,,0.00,,,138
2013-2-8,98,87,76,59,49,30,47,26,8,29.98,29.86,29.72,19,7,6,26,10,38,0.00,5,Rain-Thunderstorm,49
2013-2-9,93,84,75,59,53,46,53,34,14,30.01,29.92,29.78,19,8,6,18,9,29,0.00,6,,279
2013-2-10,93,81,69,68,59,48,94,54,14,30.01,29.91,29.77,19,7,4,17,8,31,0.35,7,Rain,329
2013-2-11,84,76,67,68,61,54,94,64,25,30.04,29.96,29.83,19,7,6,20,8,,0.00,7,Rain,124
2013-2-12,91,78,64,66,54,46,94,46,15,30.04,29.94,29.78,19,8,6,15,6,,0.00,7,,155
2013-2-13,95,80,65,57,52,44,64,34,15,29.98,29.90,29.74,19,8,6,20,10,34,0.00,4,,147
2013-2-14,96,82,68,61,53,43,73,37,9,29.98,29.87,29.70,19,8,6,15,9,21,0.00,,,117
2013-2-15,99,82,66,55,49,41,64,31,7,29.92,29.82,29.65,19,8,6,16,6,,0.00,3,,129
2013-2-16,98,84,70,55,50,43,57,29,9,29.92,29.82,29.68,19,8,6,16,8,,0.00,3,,121
2013-2-17,98,84,70,88,55,41,100,39,9,29.89,29.78,29.60,19,8,6,14,6,20,0.00,,,130
2013-2-18,101,86,71,86,56,39,100,42,8,29.83,29.74,29.59,19,8,6,18,9,30,0.00,1,,125
2013-2-19,96,81,66,54,45,36,60,25,8,29.95,29.84,29.72,19,8,6,23,12,37,0.00,3,,113
2013-2-20,99,84,68,52,44,37,52,25,6,29.95,29.87,29.73,19,8,6,24,9,33,0.00,3,,113
2013-2-21,102,85,68,47,40,30,43,20,4,29.92,29.84,29.68,19,8,6,18,6,30,0.00,,,83
2013-2-22,100,87,74,52,46,37,44,24,6,29.95,29.82,29.64,19,6,2,23,14,30,0.00,7,,110
2013-2-23,104,90,76,50,45,41,39,20,7,29.80,29.71,29.55,19,8,6,17,7,,0.00,8,Rain,69
2013-2-24,107,90,74,50,45,39,38,19,5,29.80,29.71,29.55,19,8,6,17,9,,0.00,4,,86
2013-2-25,102,86,71,46,42,37,33,18,7,29.86,29.78,29.66,19,8,6,16,8,,0.00,,,108
2013-2-26,100,86,73,52,45,41,34,20,8,29.83,29.75,29.60,19,8,6,16,8,28,0.00,6,,108
2013-2-27,87,78,69,68,57,46,94,45,15,29.89,29.79,29.65,19,8,6,21,11,31,0.04,7,,158
2013-2-28,79,74,68,68,64,61,94,75,46,29.95,29.85,29.73,16,6,5,16,10,,0.08,6,Rain,130